Terminal Aerodrome Forecast
Issued by NWS

Home | Current Version | Previous Version | Text Only | Print | Product List | Glossary On
Versions: 1 2 3 4 5 6 7 8 9 10 11 12 13 14 15 16 17 18 19 20 21 22 23 24 25 26 27 28 29
000
FTUS46 KLOX 281437 AAA
TAFLAX
TAF AMD
KLAX 281437Z 2815/2918 00000KT P6SM SKC
     FM281700 26006KT P6SM SKC
     FM282000 26012KT P6SM SKC
     FM290300 26006KT P6SM SKC
     FM290600 VRB03KT P6SM SKC
     FM291200 VRB03KT 3SM BR BKN003
     FM291600 26006KT 5SM HZ SKC=

USA.gov is the U.S. government's official web portal to all federal, state and local government web resources and services.